Tracking 18710 objects as of 29-June-2017
HD Live streaming from Space Station
objects crossing your sky now

COSMOS 2404 (GLONASS)

Track COSMOS 2404 (GLONASS) now!
COSMOS 2404 (GLONASS) is classified as:


NORAD ID: 28112
Int'l Code: 2003-056A
Perigee: 19,049.2 km
Apogee: 19,227.1 km
Inclination: 63.2 °
Period: 675.8 minutes
Semi major axis: 25509 km
RCS: 3.2542 m2 (large)
Launch date: December 10, 2003
Source: Commonwealth of Independent States (former USSR) (CIS)
Launch site: TYURATAM MISSILE AND SPACE COMPLEX (TTMTR)
SV:

New Glonass-M type; Russia's version of the GPS system, functions the same; there has been cooperation between the two; much scaled-back constellation
Your satellite tracking list
Your tracking list is empty





NASA's NSSDC Master Catalog

Two Line Element Set (TLE):
1 28112U 03056A   17179.61715491 +.00000062 +00000-0 +00000-0 0  9995
2 28112 063.2201 178.2391 0034881 082.9197 079.4165 02.13088096105422
Source of the keplerian elements: AFSPC